Date String (YYYY-MM-DD hh:mm:ss) UTC,Instrument flags,Ambient pressure (hPa),Sample flow (lpm),Bypass flow (lpm),Sample temperature (°C),Ambient temperature (°C),ASC tube jacket temperature (°C),LED temperature (°C),Box temperature (°C),Sample RH (%),Span deviation,Mass concentration (μg/m³),Mass concentration (μg/m³),Mass concentration (μg/m³)
DateTimeUTC,F1_M11,P_M11,Q1_M11,Q2_M11,T1_M11,T2_M11,T3_M11,T4_M11,T5_M11,U1_M11,ZSPAN_M11,X0_M11,X2_M11,X1_M11
2022-02-06 02:00:00,,0825.9,4.99,0.00,22.1,21.3,00.0,31.3,23.8,08.1,0000.0,0006.04,0001.99,0001.71
2022-02-06 02:01:00,,0826.0,5.01,0.00,22.1,21.3,00.0,31.2,23.8,08.1,0000.0,0006.85,0002.03,0001.75
2022-02-06 02:02:00,,0826.0,4.99,0.00,22.1,21.3,00.0,31.2,23.8,08.2,0000.0,0006.48,0002.10,0001.79
2022-02-06 02:03:00,,0826.0,5.01,0.00,22.1,21.4,00.0,31.2,23.8,08.3,0000.0,0005.50,0002.11,0001.81
2022-02-06 02:04:00,,0826.0,4.99,0.00,22.1,21.4,00.0,31.2,23.8,08.3,0000.0,0005.55,0002.11,0001.79
2022-02-06 02:05:00,,0826.0,5.01,0.00,22.1,21.4,00.0,31.2,23.7,08.3,0000.0,0006.69,0002.12,0001.79
2022-02-06 02:06:00,,0826.0,4.99,0.00,22.0,21.3,00.0,31.2,23.7,08.4,0000.0,0007.17,0002.13,0001.80
2022-02-06 02:07:00,,0826.0,5.00,0.00,22.0,21.3,00.0,31.2,23.7,08.3,0000.0,0007.60,0002.16,0001.79
2022-02-06 02:08:00,,0826.1,5.02,0.00,22.0,21.3,00.0,31.1,23.7,08.1,0000.0,0007.71,0002.17,0001.76
2022-02-06 02:09:00,,0826.1,4.99,0.00,22.0,21.3,00.0,31.1,23.7,08.1,0000.0,0007.71,0002.16,0001.74
2022-02-06 02:10:00,,0826.1,5.01,0.00,22.0,21.3,00.0,31.1,23.6,07.6,0000.0,0007.42,0002.15,0001.71
2022-02-06 02:11:00,,0826.1,4.98,0.00,21.9,21.2,00.0,31.1,23.6,07.2,0000.0,0006.64,0002.03,0001.60
2022-02-06 02:12:00,,0826.0,5.01,0.00,21.9,21.2,00.0,31.1,23.6,07.9,0000.0,0005.47,0001.97,0001.56
2022-02-06 02:13:00,,0826.0,4.98,0.00,21.9,21.2,00.0,31.1,23.6,08.2,0000.0,0005.27,0001.93,0001.54
2022-02-06 02:14:00,,0826.0,5.00,0.00,21.9,21.2,00.0,31.1,23.6,07.5,0000.0,0005.12,0001.84,0001.48
2022-02-06 02:15:00,,0826.0,4.99,0.00,22.0,21.6,00.0,31.1,23.7,07.0,0000.0,0004.94,0001.73,0001.38
2022-02-06 02:16:00,,0826.1,5.01,0.00,22.1,22.3,00.0,31.1,24.0,07.2,0000.0,0003.66,0001.64,0001.27
2022-02-06 02:17:00,,0826.1,4.99,0.00,22.2,23.0,00.0,31.2,24.2,07.4,0000.0,0003.12,0001.59,0001.20
2022-02-06 02:18:00,,0826.0,5.01,0.00,22.3,22.9,00.0,31.2,24.3,07.6,0000.0,0002.54,0001.53,0001.15
2022-02-06 02:19:00,,0826.0,5.00,0.00,22.4,22.7,00.0,31.2,24.3,07.8,0000.0,0002.28,0001.45,0001.13
2022-02-06 02:20:00,,0826.0,5.00,0.00,22.4,22.6,00.0,31.2,24.3,07.6,0000.0,0002.29,0001.45,0001.11
2022-02-06 02:21:00,,0826.1,4.99,0.00,22.4,22.4,00.0,31.2,24.2,07.7,0000.0,0002.30,0001.47,0001.12
2022-02-06 02:22:00,,0826.0,5.01,0.00,22.4,22.2,00.0,31.2,24.2,07.8,0000.0,0002.47,0001.50,0001.17
2022-02-06 02:23:00,,0826.1,4.99,0.00,22.4,22.2,00.0,31.3,24.2,07.8,0000.0,0003.43,0001.54,0001.19
2022-02-06 02:24:00,,0826.1,5.01,0.00,22.4,22.1,00.0,31.3,24.1,07.8,0000.0,0003.67,0001.59,0001.19
2022-02-06 02:25:00,,0826.1,4.99,0.00,22.3,21.9,00.0,31.3,24.1,07.9,0000.0,0003.69,0001.60,0001.21
2022-02-06 02:26:00,,0826.1,5.01,0.00,22.3,21.8,00.0,31.3,24.1,08.0,0000.0,0003.82,0001.68,0001.29
2022-02-06 02:27:00,,0826.1,4.99,0.00,22.3,21.8,00.0,31.3,24.2,07.9,0000.0,0003.85,0001.73,0001.35
2022-02-06 02:28:00,,0826.1,5.00,0.00,22.4,21.8,00.0,31.3,24.2,07.9,0000.0,0003.82,0001.71,0001.38
2022-02-06 02:29:00,,0826.1,5.01,0.00,22.4,21.8,00.0,31.3,24.2,07.9,0000.0,0004.03,0001.73,0001.40
2022-02-06 02:30:00,,0826.1,4.99,0.00,22.4,21.8,00.0,31.3,24.2,07.9,0000.0,0004.53,0001.79,0001.41
2022-02-06 02:31:00,,0826.2,5.00,0.00,22.4,21.8,00.0,31.3,24.2,07.8,0000.0,0004.67,0001.80,0001.41
2022-02-06 02:32:00,,0826.2,5.00,0.00,22.4,21.8,00.0,31.3,24.2,07.2,0000.0,0004.62,0001.75,0001.39
2022-02-06 02:33:00,,0826.1,4.99,0.00,22.4,21.9,00.0,31.3,24.2,07.1,0000.0,0004.37,0001.72,0001.35
2022-02-06 02:34:00,,0826.0,5.01,0.00,22.4,21.8,00.0,31.3,24.2,07.2,0000.0,0003.61,0001.65,0001.30
2022-02-06 02:35:00,,0826.1,5.00,0.00,22.4,21.8,00.0,31.3,24.2,07.1,0000.0,0003.38,0001.54,0001.24
2022-02-06 02:36:00,,0826.1,4.99,0.00,22.4,21.7,00.0,31.3,24.1,07.1,0000.0,0003.43,0001.50,0001.19
2022-02-06 02:37:00,,0826.2,5.02,0.00,22.4,21.6,00.0,31.3,24.1,07.1,0000.0,0003.43,0001.46,0001.15
2022-02-06 02:38:00,,0826.2,5.00,0.00,22.3,21.6,00.0,31.3,24.1,07.2,0000.0,0003.34,0001.40,0001.11
2022-02-06 02:39:00,,0826.2,5.00,0.00,22.3,21.6,00.0,31.3,24.0,07.2,0000.0,0003.26,0001.36,0001.07
2022-02-06 02:40:00,,0826.2,5.00,0.00,22.3,21.6,00.0,31.3,24.0,07.2,0000.0,0003.05,0001.32,0001.02
2022-02-06 02:41:00,,0826.2,4.99,0.00,22.3,21.5,00.0,31.3,23.9,07.1,0000.0,0002.52,0001.23,0000.97
2022-02-06 02:42:00,,0826.2,5.02,0.00,22.2,21.4,00.0,31.3,23.9,07.0,0000.0,0002.20,0001.15,0000.91
2022-02-06 02:43:00,,0826.1,4.99,0.00,22.2,21.4,00.0,31.3,23.8,06.8,0000.0,0002.13,0001.10,0000.87
2022-02-06 02:44:00,,0826.1,5.02,0.00,22.2,21.4,00.0,31.3,23.8,07.0,0000.0,0002.08,0001.09,0000.86
2022-02-06 02:45:00,,0826.2,4.99,0.00,22.1,21.4,00.0,31.2,23.8,07.1,0000.0,0002.01,0001.11,0000.84
2022-02-06 02:46:00,,0826.2,5.01,0.00,22.1,21.3,00.0,31.2,23.8,07.1,0000.0,0001.92,0001.12,0000.83
2022-02-06 02:47:00,,0826.2,4.99,0.00,22.1,21.3,00.0,31.2,23.7,07.2,0000.0,0001.82,0001.10,0000.83
2022-02-06 02:48:00,,0826.2,5.00,0.00,22.0,21.3,00.0,31.2,23.7,07.2,0000.0,0001.70,0001.07,0000.81
2022-02-06 02:49:00,,0826.2,5.01,0.00,22.0,21.2,00.0,31.2,23.7,07.2,0000.0,0001.65,0001.06,0000.80
2022-02-06 02:50:00,,0826.2,4.99,0.00,22.0,21.2,00.0,31.2,23.7,07.2,0000.0,0001.62,0001.04,0000.78
2022-02-06 02:51:00,,0826.1,5.01,0.00,22.0,21.3,00.0,31.2,23.7,07.4,0000.0,0002.18,0001.02,0000.76
2022-02-06 02:52:00,,0826.2,4.99,0.00,22.0,21.3,00.0,31.1,23.7,07.6,0000.0,0002.89,0001.01,0000.76
2022-02-06 02:53:00,,0826.1,5.01,0.00,22.0,21.3,00.0,31.1,23.8,07.4,0000.0,0003.27,0001.00,0000.76
2022-02-06 02:54:00,,0826.1,5.00,0.00,22.0,21.3,00.0,31.1,23.8,07.1,0000.0,0003.24,0000.99,0000.75
2022-02-06 02:55:00,,0826.2,4.99,0.00,22.0,21.3,00.0,31.1,23.8,06.9,0000.0,0003.20,0000.96,0000.73
2022-02-06 02:56:00,,0826.2,5.01,0.00,22.0,21.3,00.0,31.1,23.7,07.0,0000.0,0003.17,0000.93,0000.71
2022-02-06 02:57:00,,0826.2,5.00,0.00,22.0,21.3,00.0,31.1,23.7,07.1,0000.0,0003.14,0000.91,0000.70
2022-02-06 02:58:00,,0826.2,5.01,0.00,22.0,21.3,00.0,31.1,23.7,07.1,0000.0,0003.07,0000.89,0000.68
2022-02-06 02:59:00,,0826.2,5.00,0.00,22.0,21.2,00.0,31.1,23.7,07.3,0000.0,0003.09,0000.89,0000.67
